Regional Weather Roundup
Issued by NWS Raleigh/Durham, NC

Home | Current Version | Previous Version | Text Only | Print | Product List | Glossary On
Versions: 1 2 3 4 5 6 7 8 9 10 11 12 13 14 15 16 17 18 19 20 21 22 23 24 25 26 27 28 29 30 31 32 33 34 35 36 37 38 39 40 41 42 43 44 45 46 47 48 49 50
000
ASUS42 KRAH 242010
RWRRAH
NORTH CAROLINA WEATHER ROUNDUP
NATIONAL WEATHER SERVICE RALEIGH NC
400 PM EDT SUN JUL 24 2016

NOTE: "FAIR" INDICATES FEW OR NO CLOUDS BELOW 12,000 FEET WITH NO
SIGNIFICANT WEATHER AND/OR OBSTRUCTIONS TO VISIBILITY.

NCZ001-053-055-056-065-067-242100-
WESTERN NORTH CAROLINA

CITY           SKY/WX    TMP DP  RH WIND       PRES   REMARKS
ASHEVILLE      SUNNY     89  67  47 S10       30.10F
JEFFERSON      MOSUNNY   83  64  51 SE6       30.17S
MORGANTON      CLOUDY    94  68  42 CALM      30.08F HX  98
HICKORY        CLOUDY    90  70  51 CALM      30.03F HX  95
RUTHERFORDTON    N/A     92  71  50 CALM      30.03F HX  99
MOUNT AIRY     CLOUDY    94  72  47 SW5       30.06F HX 102
BOONE          CLOUDY   N/A N/A N/A SE8       30.17F
$$

NCZ021-022-025-041-071-084-088-242100-
CENTRAL NORTH CAROLINA

CITY           SKY/WX    TMP DP  RH WIND       PRES   REMARKS
CHARLOTTE      MOSUNNY   95  66  38 SW7       30.01F HX  98
GREENSBORO     CLOUDY    95  67  39 S10       30.01F HX  99
WINSTON-SALEM  CLOUDY    94  66  39 VRB3      30.04F HX  97
RALEIGH-DURHAM PTSUNNY   95  72  47 VRB7      30.01F HX 103
FORT BRAGG     SUNNY     94  71  47 CALM      29.99F HX 102
FAYETTEVILLE   MOSUNNY   96  70  42 SW6       29.99F HX 102
BURLINGTON     SUNNY     94  68  42 CALM      30.01F HX  98
LAURINBURG     MOSUNNY   95  73  48 SW6       30.01F HX 104
$$

NCZ011-015-027-028-043-044-047-080-103-242100-
NORTHEASTERN NORTH CAROLINA

CITY           SKY/WX    TMP DP  RH WIND       PRES   REMARKS
ROCKY MT-WILSO SUNNY     94  75  54 SW8       30.00F HX 105
GREENVILLE     SUNNY     95  75  52 SW5       30.01F HX 107
WASHINGTON     SUNNY     93  75  55 SW6       29.99F HX 104
ELIZABETH CITY SUNNY     94  73  50 S10       29.98F HX 103
MANTEO           N/A     89  81  79 S15       29.99F HX 107
CAPE HATTERAS  SUNNY     88  79  74 SW10      30.02F HX 103
$$

NCZ078-087-090-091-093-098-101-242100-
SOUTHEASTERN NORTH CAROLINA

CITY           SKY/WX    TMP DP  RH WIND       PRES   REMARKS
LUMBERTON      SUNNY     94  73  50 S6        30.00S HX 103
GOLDSBORO      SUNNY     96  72  45 SW10      29.98F HX 104
KINSTON        MOSUNNY   97  73  46 SW7       30.00F HX 107
KENANSVILLE    NOT AVBL
NEW BERN       PTSUNNY   92  77  61 S9        30.01F HX 105
CHERRY POINT   MOSUNNY   91  75  59 S12       30.02S HX 101
BEAUFORT       SUNNY     88  79  74 SW13      30.02F HX 103
JACKSONVILLE   SUNNY     91  76  61 S13       30.00F HX 103
WILMINGTON     MOSUNNY   91  75  59 S10       30.01F HX 101
$$




USA.gov is the U.S. government's official web portal to all federal, state and local government web resources and services.